[[{"header":{"parameterUnit":"m.s-1","parameterCategory":1,"la1":30.2991,"la2":30.254,"lo1":-89.0895,"lo2":-89.0444,"dy":0.0017,"dx":0.0017,"nx":28,"ny":28,"refTime":"2025-01-17T09:00:00:Z","depth":0,"parameterNumber":2,"parameterNumberName":"U-component_of_WINDS"},"data":[0,0,0,0,0,0,0,0,0,0,0,0,0,0,0,0,0,0,0,0,0,0,0,0,0,0,0,0,0,0,0,0,0,0,0,0,0,0,0,0,0,0,0,0,0,0,0,0,0,0,0,0,0,0,0,0,0,0,2.6615,2.6616,0,2.6733,2.6734,2.6736,2.6743,2.6742,2.6741,2.674,2.6864,2.6868,2.6873,0,0,0,0,0,0,0,0,0,0,0,0,0,2.6402,2.6406,2.6615,2.6616,2.6618,2.6733,2.6734,2.6736,2.6744,2.6742,2.674,2.6739,2.6862,2.6868,2.6873,0,0,0,0,0,0,0,0,0,0,0,0,0,2.6505,2.6407,2.6614,2.6635,2.6638,2.6732,2.6734,2.6736,2.6744,2.6742,2.674,2.6738,2.686,2.6867,2.6874,2.6956,0,0,2.6895,2.6898,0,0,0,0,0,0,0,0,2.6499,2.6512,2.6631,2.6634,2.6638,2.6721,2.6705,2.681,2.6745,2.6704,2.674,2.6737,2.6818,2.6828,2.6855,2.6962,2.6967,2.6895,2.6899,2.6902,2.6904,0,0,0,0,0,0,0,2.6492,2.6507,2.6662,2.6633,2.6637,2.6641,2.6653,2.6725,2.6771,2.6707,2.6708,2.6722,2.682,2.6848,2.6858,2.6969,2.6895,2.6901,2.6905,2.6908,2.7155,2.7157,0,0,0,0,0,0,2.648,2.6501,2.6658,2.6665,2.6562,2.6646,2.666,2.6697,2.677,2.6779,2.6724,2.6722,2.6838,2.685,2.6862,2.6967,2.6902,2.6909,2.6913,2.7153,2.7156,2.7158,0,0,0,0,0,0,2.6475,2.6494,2.6653,2.6584,2.6604,2.6652,2.6693,2.67,2.6729,2.6782,2.6791,2.6744,2.6837,2.6853,2.6934,2.6971,2.6912,2.6918,2.715,2.7154,2.7157,2.7175,0,0,0,0,0,0,2.6469,2.6492,2.6522,2.6584,2.6608,2.672,2.6695,2.6704,2.674,2.6739,2.6804,2.6813,2.6836,2.6924,2.6941,2.698,2.6923,2.7147,2.7151,2.7156,2.7171,2.7178,2.7185,0,0,0,0,0,2.6461,2.6522,2.6523,2.6542,2.6646,2.6722,2.6736,2.6761,2.6743,2.6775,2.681,2.6811,2.6964,2.6932,2.6951,2.6993,2.7144,2.715,2.7155,2.7168,2.7177,2.7185,0,0,0,0,0,0,2.6462,2.653,2.6533,2.6614,2.6663,2.6724,2.6764,2.6769,2.6824,2.6821,2.6851,2.6866,2.6947,2.6978,2.694,2.7079,2.7053,2.7062,2.7055,2.7065,2.7071,2.7063,2.6929,0,0,0,0,0,2.6472,2.6527,2.6584,2.6651,2.6675,2.6716,2.675,2.6765,2.6817,2.6837,2.6878,2.693,2.699,2.7029,2.7087,2.7175,2.7192,2.7214,2.7221,2.7227,2.7235,2.7289,2.73,2.7176,2.7176,2.7176,0,0,2.6493,2.6537,2.6569,2.6652,2.6691,2.675,2.6733,2.6794,2.6839,2.6847,2.6926,2.6959,2.7018,2.7105,2.7145,2.7133,2.7273,2.7234,2.7238,2.7243,2.7295,2.7307,2.7318,2.718,2.718,2.7179,0,0,2.6561,2.6598,2.666,2.67,2.676,2.6788,2.6803,2.6864,2.6886,2.6966,2.6975,2.7029,2.7131,2.7175,2.721,2.73,2.7304,2.7318,2.7355,2.7406,2.7416,2.7425,2.746,2.7472,2.7326,2.7326,2.7326,0,2.6579,2.6666,2.6691,2.6754,2.6792,2.6803,2.6868,2.6906,2.6982,2.7009,2.6995,2.7126,2.7166,2.7265,2.7287,2.7314,2.7335,2.731,2.7413,2.7422,2.743,2.7464,2.7477,2.7327,2.7327,2.7327,2.7327,0,2.6688,2.6749,2.6792,2.6866,2.6909,2.6972,2.7009,2.705,2.7063,2.7093,2.7177,2.7226,2.7297,2.7321,2.7333,2.7423,2.7414,2.7406,2.738,2.7443,2.7476,2.7489,2.7329,2.7329,2.7328,2.7328,0,0,2.6758,2.6847,2.6863,2.6899,2.6967,2.7016,2.7082,2.7151,2.7187,2.724,2.7298,2.7386,2.738,2.7421,2.7439,2.7484,2.7557,2.7471,2.7473,2.7487,2.7663,2.767,2.7684,2.7559,2.7562,2.7564,2.7659,0,2.6835,2.6951,2.6978,2.7079,2.7137,2.715,2.7209,2.7259,2.7289,2.7346,2.738,2.7443,2.7429,2.7454,2.7499,2.7538,2.7592,2.7531,2.7617,2.7619,2.7603,2.7701,2.7707,2.7794,2.7671,2.7673,2.7675,0,2.694,2.6997,2.7104,2.7169,2.7195,2.7246,2.7314,2.7366,2.7425,2.7445,2.7492,2.7506,2.7579,2.755,2.7652,2.761,2.7647,2.7671,2.7676,2.7686,2.7652,2.7716,2.7822,2.7836,2.7695,2.7693,2.7692,0,2.6984,2.7087,2.7166,2.7195,2.7273,2.7309,2.7343,2.74,2.7441,2.7501,2.7529,2.7596,2.7633,2.7687,2.772,2.7695,2.7821,2.7794,2.7842,2.7842,2.7869,2.7867,2.7985,2.7889,2.7889,2.7889,2.7888,0,2.7069,2.7134,2.7187,2.7235,2.7311,2.7342,2.7416,2.7451,2.7502,2.756,2.7575,2.7629,2.767,2.773,2.7757,2.784,2.7856,2.7876,2.7883,2.7876,2.7874,2.7901,2.7897,2.7892,2.7891,2.7891,2.789,0,2.713,2.7167,2.7254,2.7322,2.734,2.7393,2.7452,2.7501,2.7533,2.7606,2.7625,2.7677,2.7749,2.7788,2.7878,2.7897,2.7991,2.7993,2.7971,2.7974,2.8021,2.8017,2.8162,2.8185,2.8072,2.8073,2.8074,0,2.7182,2.7233,2.7307,2.7346,2.7382,2.7444,2.7487,2.7522,2.7566,2.764,2.7681,2.7754,2.7815,2.7931,2.7978,2.8048,2.8054,2.81,2.8065,2.8057,2.8058,2.8055,2.8062,2.8107,2.8108,2.8108,2.8109,0,2.7272,2.7289,2.7349,2.7418,2.7469,2.7524,2.7579,2.7611,2.7655,2.7705,2.7779,2.7827,2.7921,2.7995,2.807,2.8108,2.8118,2.812,2.8136,2.813,2.8116,2.8127,2.799,2.8117,2.8116,2.8115,2.8115,2.8115,2.7332,2.7379,2.744,2.7508,2.7554,2.7606,2.7657,2.7696,2.7759,2.7838,2.7855,2.7935,2.7997,2.8099,2.8139,2.8204,2.8195,2.8217,2.8223,2.8228,2.8231,2.8104,2.8218,2.8217,2.8217,2.8217,2.8217,0,2.7424,2.7465,2.7527,2.7605,2.766,2.7664,2.7726,2.7773,2.7842,2.7899,2.7959,2.8048,2.8121,2.8174,2.825,2.8292,2.8298,2.8311,2.8309,2.8318,2.8233,2.8214,2.8304,2.8304,2.8304,2.8304,2.8304,2.8304,2.7479,2.7561,2.7587,2.7693,2.7734,2.7812,2.7848,2.7898,2.7944,2.8041,2.8102,2.8137,2.8194,2.8274,2.8343,2.8357,2.8385,2.8398,2.8413,2.8333,2.8323,2.8315,2.8296,2.8403,2.8403,2.8492,2.8493,2.8494]},{"header":{"parameterUnit":"m.s-1","parameterCategory":1,"la1":30.2991,"la2":30.254,"lo1":-89.0895,"lo2":-89.0444,"dy":0.0017,"dx":0.0017,"nx":28,"ny":28,"refTime":"2025-01-17T09:00:00:Z","depth":0,"parameterNumber":3,"parameterNumberName":"V-component_of_WINDS"},"data":[0,0,0,0,0,0,0,0,0,0,0,0,0,0,0,0,0,0,0,0,0,0,0,0,0,0,0,0,0,0,0,0,0,0,0,0,0,0,0,0,0,0,0,0,0,0,0,0,0,0,0,0,0,0,0,0,0,0,2.9515,2.9516,0,2.9572,2.9573,2.9573,2.9569,2.9568,2.9567,2.9566,2.9623,2.9625,2.9628,0,0,0,0,0,0,0,0,0,0,0,0,0,2.9401,2.9403,2.9515,2.9516,2.9517,2.9572,2.9573,2.9574,2.9569,2.9568,2.9567,2.9566,2.9622,2.9625,2.9628,0,0,0,0,0,0,0,0,0,0,0,0,0,2.9453,2.9403,2.9515,2.9521,2.9522,2.9572,2.9573,2.9574,2.9569,2.9568,2.9566,2.9565,2.9621,2.9625,2.9628,2.9675,0,0,2.9639,2.964,0,0,0,0,0,0,0,0,2.945,2.9457,2.9519,2.9521,2.9522,2.9562,2.9553,2.9608,2.9569,2.9551,2.9566,2.9565,2.9604,2.9608,2.9622,2.9678,2.9681,2.9639,2.9641,2.9643,2.9644,0,0,0,0,0,0,0,2.9447,2.9455,2.9538,2.952,2.9522,2.952,2.9526,2.9564,2.9584,2.9553,2.9552,2.9559,2.9604,2.9619,2.9623,2.9681,2.9639,2.9642,2.9644,2.9646,2.9781,2.9782,0,0,0,0,0,0,2.9442,2.9452,2.9536,2.9539,2.9482,2.9523,2.953,2.955,2.9583,2.9587,2.956,2.9559,2.9613,2.9619,2.9625,2.9684,2.9643,2.9646,2.9648,2.9779,2.9781,2.9782,0,0,0,0,0,0,2.9439,2.9449,2.9534,2.9496,2.9506,2.9527,2.955,2.9552,2.9567,2.9589,2.9593,2.9572,2.9613,2.962,2.9663,2.9686,2.9647,2.9651,2.9777,2.978,2.9782,2.9802,0,0,0,0,0,0,2.9436,2.9448,2.9467,2.9496,2.9508,2.9571,2.9551,2.9554,2.9573,2.9572,2.9601,2.9604,2.9612,2.9658,2.9667,2.969,2.9653,2.9775,2.9778,2.9781,2.98,2.9805,2.9809,0,0,0,0,0,2.9432,2.947,2.9468,2.9478,2.9532,2.9573,2.958,2.9588,2.9575,2.9594,2.9608,2.9604,2.9682,2.9663,2.9672,2.9697,2.9774,2.9777,2.9781,2.9797,2.9804,2.9809,0,0,0,0,0,0,2.9442,2.9474,2.9472,2.952,2.9544,2.9572,2.9596,2.9594,2.9622,2.9619,2.9628,2.9635,2.9678,2.9692,2.967,2.9745,2.9726,2.9732,2.9736,2.9742,2.9747,2.9743,2.9656,0,0,0,0,0,2.945,2.9481,2.9506,2.9547,2.9559,2.9575,2.9593,2.9598,2.9622,2.9632,2.965,2.9673,2.9703,2.9723,2.9752,2.9801,2.9808,2.9823,2.9827,2.9831,2.9837,2.9865,2.9873,2.9794,2.9794,2.9793,0,0,2.9467,2.9488,2.9507,2.9549,2.9568,2.96,2.9584,2.9617,2.9641,2.9637,2.968,2.9693,2.972,2.9767,2.9788,2.9779,2.986,2.9836,2.9839,2.9842,2.9869,2.9877,2.9884,2.9796,2.9795,2.9795,0,0,2.9514,2.9532,2.9569,2.9588,2.9617,2.9628,2.9636,2.9665,2.9674,2.9717,2.9715,2.9742,2.9793,2.9813,2.983,2.9885,2.9882,2.9893,2.992,2.9948,2.9954,2.9959,2.9981,2.9988,2.9898,2.9898,2.9898,0,2.9531,2.958,2.9588,2.9623,2.9642,2.964,2.9677,2.9695,2.9731,2.9745,2.9734,2.9799,2.9817,2.9869,2.9883,2.9895,2.9906,2.9891,2.9952,2.9958,2.9963,2.9984,2.9992,2.99,2.9899,2.9899,2.9899,0,2.96,2.9633,2.9659,2.9696,2.9718,2.9753,2.9767,2.9788,2.979,2.9802,2.9846,2.9867,2.9901,2.9913,2.9915,2.9966,2.996,2.995,2.9932,2.9972,2.9992,3.0,2.9902,2.9901,2.9901,2.99,0,0,2.9657,2.9697,2.9707,2.9724,2.9756,2.9782,2.9817,2.9851,2.9869,2.9894,2.9925,2.9968,2.9961,2.9979,2.9984,3.0008,3.0052,2.9996,2.9996,3.0007,3.0111,3.012,3.0129,3.0049,3.0051,3.0052,3.011,0,2.9709,2.9773,2.9781,2.9838,2.987,2.9868,2.9899,2.9922,2.9933,2.9962,2.9974,3.0006,2.9992,3.0004,3.0027,3.0042,3.0073,3.0037,3.0079,3.0081,3.0075,3.0138,3.0147,3.0201,3.0117,3.0118,3.0119,0,2.9778,2.9807,2.9867,2.9895,2.9909,2.9937,2.9969,2.9996,3.0021,3.0028,3.005,3.0051,3.0088,3.0066,3.0118,3.0093,3.011,3.012,3.0122,3.0128,3.0104,3.0148,3.0218,3.0227,3.0131,3.013,3.0129,0,2.9816,2.9869,2.9912,2.9927,2.996,2.998,2.9995,3.0019,3.0039,3.0067,3.008,3.0111,3.0129,3.0153,3.0162,3.0145,3.0214,3.0192,3.0222,3.0222,3.0238,3.0237,3.0313,3.0245,3.0245,3.0245,3.0245,0,2.9875,2.9912,2.993,2.9957,2.9999,3.0008,3.0049,3.0063,3.0085,3.0114,3.0113,3.0141,3.0151,3.018,3.0188,3.023,3.0238,3.0245,3.0247,3.0246,3.0246,3.0259,3.0257,3.0247,3.0247,3.0246,3.0246,0,2.9925,2.9938,2.9986,3.0014,3.0022,3.0052,3.0076,3.0102,3.0113,3.015,3.016,3.0177,3.0212,3.0223,3.0265,3.027,3.032,3.0318,3.0312,3.0313,3.0342,3.034,3.0432,3.0445,3.0366,3.0367,3.0367,0,2.9963,2.9992,3.0023,3.0044,3.006,3.0092,3.0112,3.0122,3.0143,3.0175,3.0197,3.0232,3.026,3.0315,3.0332,3.0364,3.0363,3.0393,3.0368,3.0367,3.0367,3.0366,3.0369,3.0399,3.0399,3.04,3.0401,0,3.0029,3.0034,3.0065,3.0098,3.0123,3.0149,3.0174,3.019,3.0203,3.0227,3.0263,3.0285,3.0328,3.0363,3.0396,3.041,3.0408,3.0408,3.0417,3.0418,3.0414,3.0419,3.0327,3.0406,3.0406,3.0405,3.0405,3.0405,3.0076,3.0102,3.0129,3.0163,3.0183,3.0207,3.0233,3.0248,3.0278,3.0315,3.0318,3.0357,3.0382,3.0426,3.0442,3.0473,3.0465,3.0477,3.048,3.0484,3.0487,3.0408,3.0478,3.0478,3.0478,3.0478,3.0478,0,3.0144,3.0161,3.0192,3.0228,3.0255,3.025,3.0278,3.0301,3.0336,3.036,3.0388,3.0429,3.0463,3.0482,3.0516,3.0537,3.0537,3.0545,3.0545,3.0549,3.0492,3.0482,3.0545,3.0545,3.0545,3.0545,3.0545,3.0545,3.0183,3.0228,3.0236,3.0291,3.0308,3.0347,3.0363,3.0385,3.0405,3.0452,3.048,3.0492,3.0514,3.055,3.0581,3.0585,3.0599,3.0609,3.0613,3.0559,3.0553,3.0546,3.0537,3.0611,3.0611,3.0668,3.0668,3.0669]}]]